Dubuque, IA

12:21 PM CDT on May 23, 2017 (GMT -0500)
Dubuque Regional

Weather History for KDBQ - September, 2012

Change the Weather History Date:

Thursday, September 6, 2012

  Actual Average Record
Temperature  
Mean Temperature 67 °F 66 °F  
Max Temperature 79 °F 76 °F 99 °F (1922)
Min Temperature 55 °F 56 °F 38 °F (1988)
Degree Days  
Heating Degree Days 0 2  
Month to date heating degree days 0 12  
Since 1 July heating degree days 16 39  
Cooling Degree Days 2 3  
Month to date cooling degree days 47 21  
Year to date cooling degree days 892 597  
Growing Degree Days 17 (Base 50)    
Moisture  
Dew Point 54 °F    
Average Humidity 66    
Maximum Humidity 97    
Minimum Humidity 35    
Precipitation  
Precipitation 0.00 in 0.12 in 1.55 in (1970)
Month to date precipitation 0.69 0.72  
Year to date precipitation 17.44 26.70  
Snow  
Snow 0.00 in 0.00 in - ()
Month to date snowfall 0.0 0.0  
Since 1 July snowfall 0.0 0.0  
Since 1 September snowfall 0.0 0.0  
Snow Depth 0.00 in    
Sea Level Pressure  
Sea Level Pressure 29.94 in    
Wind  
Wind Speed 4 mph (NNE)    
Max Wind Speed 12 mph    
Max Gust Speed 16 mph    
Visibility 10 miles    
Events      
T = Trace of Precipitation, MM = Missing Value Source: NWS Daily Summary

Daily Weather History Graph

Daily Weather History Graph

Search for Another Location

Airport or City:

Trip Planner

Search our weather history database for the weather conditions in past years. The results will help you decide how hot, cold, wet, or windy it might be!

Date:

Astronomy

Sep. 06, 2012 Rise Set
Actual Time 6:33 AM CDT 7:27 PM CDT
Civil Twilight 6:05 AM CDT 7:55 PM CDT
Nautical Twilight 5:31 AM CDT 8:29 PM CDT
Astronomical Twilight 4:55 AM CDT 9:05 PM CDT
Moon 10:29 PM CDT (9/6) 12:41 PM CDT (9/6)
Length of Visible Light 13h 50m
Length of Day
12h 53m
Waning Gibbous, 67% of the Moon is Illuminated
Sep 6
Waning Gibbous
Sep 8
Last Quarter
Sep 15
New
Sep 22
First Quarter
Sep 29
Full

Hourly Weather History & Observations

Time (CDT) Temp. Dew Point Humidity Pressure Visibility Wind Dir Wind Speed Gust Speed Precip Events Conditions
12:53 AM 62.1 °F 61.0 °F 96% 29.88 in 10.0 mi Calm Calm - N/A   Clear
1:53 AM 61.0 °F 59.0 °F 93% 29.90 in 10.0 mi NNW 8.1 mph - N/A   Clear
2:53 AM 64.0 °F 57.0 °F 78% 29.91 in 10.0 mi NNW 10.4 mph - N/A   Clear
3:53 AM 62.1 °F 55.0 °F 78% 29.92 in 10.0 mi North 6.9 mph - N/A   Clear
4:53 AM 62.1 °F 53.1 °F 72% 29.94 in 10.0 mi NNE 4.6 mph - N/A   Clear
5:53 AM 60.1 °F 52.0 °F 75% 29.94 in 10.0 mi Calm Calm - N/A   Clear
6:53 AM 55.9 °F 53.1 °F 90% 29.97 in 10.0 mi Calm Calm - N/A   Clear
7:53 AM 63.0 °F 54.0 °F 72% 29.98 in 10.0 mi North 5.8 mph - N/A   Clear
8:53 AM 66.0 °F 55.0 °F 68% 29.98 in 10.0 mi North 6.9 mph - N/A   Clear
9:53 AM 69.1 °F 55.0 °F 61% 29.99 in 10.0 mi North 5.8 mph - N/A   Clear
10:53 AM 73.0 °F 52.0 °F 48% 29.99 in 10.0 mi North 9.2 mph - N/A   Clear
11:53 AM 73.9 °F 48.9 °F 41% 29.99 in 10.0 mi NE 5.8 mph - N/A   Clear
12:53 PM 75.0 °F 51.1 °F 43% 29.98 in 10.0 mi North 10.4 mph - N/A   Clear
1:53 PM 77.0 °F 48.0 °F 36% 29.97 in 10.0 mi Calm Calm - N/A   Clear
2:53 PM 77.0 °F 48.0 °F 36% 29.94 in 10.0 mi Variable 3.5 mph - N/A   Clear
3:53 PM 79.0 °F 48.9 °F 35% 29.93 in 10.0 mi Variable 4.6 mph - N/A   Clear
4:53 PM 78.1 °F 48.0 °F 35% 29.92 in 10.0 mi Calm Calm - N/A   Clear
5:53 PM 75.9 °F 51.1 °F 42% 29.91 in 10.0 mi East 5.8 mph - N/A   Clear
6:53 PM 73.9 °F 53.1 °F 48% 29.92 in 10.0 mi Calm Calm - N/A   Clear
7:53 PM 66.0 °F 57.9 °F 75% 29.92 in 10.0 mi Calm Calm - N/A   Clear
8:53 PM 64.0 °F 57.0 °F 78% 29.93 in 10.0 mi Calm Calm - N/A   Clear
9:53 PM 63.0 °F 55.0 °F 75% 29.93 in 10.0 mi ESE 3.5 mph - N/A   Clear
10:53 PM 64.9 °F 53.1 °F 65% 29.91 in 10.0 mi East 8.1 mph - N/A   Clear
11:53 PM 64.0 °F 55.9 °F 75% 29.91 in 10.0 mi Calm Calm - N/A   Partly Cloudy